New Iberia, LA

9:48 AM CDT on April 23, 2017 (GMT -0500)
Acadiana Regional

Weather History for KARA - July, 2013

Change the Weather History Date:

Sunday, July 14, 2013

  Actual Average Record
Temperature  
Mean Temperature 81 °F 83 °F  
Max Temperature 88 °F 91 °F 97 °F (1995)
Min Temperature 74 °F 74 °F 69 °F (1998)
Degree Days  
Heating Degree Days 0 0  
Month to date heating degree days 0 0  
Since 1 June heating degree days 0 0  
Since 1 July heating degree days 0 0  
Cooling Degree Days 16 18  
Month to date cooling degree days 247 241  
Year to date cooling degree days 1391 1282  
Since 1 June cooling degree days 810 712  
Growing Degree Days 30 (Base 50)    
Moisture  
Dew Point 72 °F    
Average Humidity 76    
Maximum Humidity 91    
Minimum Humidity 61    
Precipitation  
Precipitation 0.01 in 0.22 in 2.65 in (1989)
Month to date precipitation 2.28 2.96  
Year to date precipitation 43.84 32.09  
Sea Level Pressure  
Sea Level Pressure 29.95 in    
Wind  
Wind Speed 5 mph (East)    
Max Wind Speed 13 mph    
Max Gust Speed -    
Visibility 9 miles    
Events Thunderstorm    
T = Trace of Precipitation, MM = Missing Value Source: NWS Daily Summary

Daily Weather History Graph

Daily Weather History Graph

Search for Another Location

Airport or City:

Trip Planner

Search our weather history database for the weather conditions in past years. The results will help you decide how hot, cold, wet, or windy it might be!

Date:

Astronomy

Jul. 14, 2013 Rise Set
Actual Time 6:16 AM CDT 8:10 PM CDT
Civil Twilight 5:49 AM CDT 8:37 PM CDT
Nautical Twilight 5:16 AM CDT 9:09 PM CDT
Astronomical Twilight 4:42 AM CDT 9:44 PM CDT
Moon 12:02 PM CDT (7/14) 11:56 PM CDT (7/14)
Length of Visible Light 14h 48m
Length of Day
13h 54m
Waxing Crescent, 35% of the Moon is Illuminated
Jul 14
Waxing Crescent
Jul 15
First Quarter
Jul 22
Full
Jul 29
Last Quarter
Aug 6
New

Hourly Weather History & Observations

Time (CDT) Temp. Heat Index Dew Point Humidity Pressure Visibility Wind Dir Wind Speed Gust Speed Precip Events Conditions
12:53 AM 80.1 °F 83.2 °F 70.0 °F 71% 29.92 in 10.0 mi NE 8.1 mph - N/A   Partly Cloudy
1:53 AM 78.1 °F - 70.0 °F 76% 29.91 in 10.0 mi NE 8.1 mph - N/A   Clear
2:53 AM 77.0 °F - 70.0 °F 79% 29.91 in 10.0 mi NE 8.1 mph - N/A   Clear
3:53 AM 75.0 °F - 69.1 °F 82% 29.91 in 9.0 mi ENE 3.5 mph - N/A   Clear
4:53 AM 73.9 °F - 70.0 °F 87% 29.91 in 7.0 mi Calm Calm - N/A   Clear
5:53 AM 75.9 °F - 71.1 °F 85% 29.92 in 6.0 mi Variable 6.9 mph - N/A   Haze
6:53 AM 75.0 °F - 71.1 °F 87% 29.93 in 4.0 mi Calm Calm - N/A   Mostly Cloudy
7:53 AM 79.0 °F - 75.0 °F 88% 29.94 in 4.0 mi WSW 3.5 mph - N/A   Clear
8:53 AM 82.9 °F 90.2 °F 75.0 °F 77% 29.94 in 7.0 mi Calm Calm - N/A   Clear
9:53 AM 84.0 °F 92.6 °F 75.9 °F 76% 29.95 in 8.0 mi Calm Calm - N/A   Clear
10:53 AM 86.0 °F 96.0 °F 75.9 °F 72% 29.96 in 10.0 mi Calm Calm - N/A   Partly Cloudy
11:28 AM 87.8 °F 95.6 °F 73.4 °F 62% 29.96 in 10.0 mi SW 3.5 mph - N/A Thunderstorm Clear
11:51 AM 87.8 °F 95.6 °F 73.4 °F 62% 29.97 in 10.0 mi WSW 3.5 mph - N/A   Mostly Cloudy
11:53 AM 88.0 °F 94.7 °F 72.0 °F 59% 29.98 in 10.0 mi Calm Calm - N/A Thunderstorm Scattered Clouds
12:50 PM 87.8 °F 93.8 °F 71.6 °F 58% 29.97 in 10.0 mi ENE 3.5 mph - N/A   Scattered Clouds
12:53 PM 88.0 °F 94.7 °F 72.0 °F 59% 29.97 in 10.0 mi NNE 3.5 mph - N/A   Mostly Cloudy
1:38 PM 86.0 °F 91.8 °F 71.6 °F 62% 29.97 in 10.0 mi ESE 6.9 mph - N/A Thunderstorm Partly Cloudy
1:53 PM 86.0 °F 92.2 °F 72.0 °F 63% 29.98 in 10.0 mi ESE 4.6 mph - N/A   Mostly Cloudy
2:53 PM 84.0 °F 89.0 °F 71.1 °F 65% 29.96 in 10.0 mi Calm Calm - 0.01 in   Partly Cloudy
3:53 PM 84.9 °F 90.7 °F 72.0 °F 65% 29.95 in 10.0 mi East 10.4 mph - N/A   Clear
4:53 PM 84.9 °F 90.7 °F 72.0 °F 65% 29.94 in 10.0 mi SE 8.1 mph - N/A   Clear
5:53 PM 86.0 °F 92.2 °F 72.0 °F 63% 29.92 in 10.0 mi ESE 8.1 mph - N/A   Clear
6:53 PM 86.0 °F 93.0 °F 73.0 °F 65% 29.94 in 10.0 mi SSE 6.9 mph - N/A   Clear
7:53 PM 82.9 °F 89.4 °F 73.9 °F 74% 29.95 in 10.0 mi East 6.9 mph - N/A   Clear
8:53 PM 80.1 °F 84.5 °F 73.9 °F 81% 29.97 in 10.0 mi East 8.1 mph - N/A   Clear
9:53 PM 78.1 °F - 72.0 °F 81% 29.98 in 10.0 mi East 6.9 mph - N/A   Clear
10:53 PM 78.1 °F - 72.0 °F 81% 29.99 in 10.0 mi ESE 9.2 mph - N/A   Clear
11:53 PM 78.1 °F - 71.1 °F 79% 29.99 in 10.0 mi ESE 9.2 mph - N/A   Clear